Terug naar catalogus

STARLINK-37591

ActiefCommunicatieSSO
NORAD 69033·PAYLOAD·🇺🇸 United States

Gelanceerd May 6, 2026 vanaf Vandenberg Space Force Base

Loading…

Volgende Passages (komende 24 uur)

TLE

VersSource: CelesTrak SupGP

Epoch: Sep 14, 2026, 23:26 UTC

1 69033C 26101J   26257.97687500  .00085412  00000+0  26499-2 0  2573
2 69033  97.2848 111.5254 0002210  93.3367 191.9365 15.33412435    12

Volg STARLINK-37591 in realtime met AllMySat

Download on the App Store